This demonstration page uses our WeatherBlox Daily Observations layout. Learn more.

Left ArrowRight Arrow

41.55636, -103.73856

Hourly Observations for July 7, 2015

Temp ( °F °C ) Dew Point ( °F °C ) Humidity (%) Winds ( mph kmh ) Pressure ( in mb ) Visibility ( mi km ) Precip ( " mm )
12:53 am 00:53 Cloudy with Haze 63 17.2 55 12.8 76 76 SE 7 11 30.14 1021 5 8.0467 0 0
1:53 am 01:53 Cloudy with Haze 62 16.7 55 12.8 78 78 SE 7 11 30.13 1020 5 8.0467 0 0
2:53 am 02:53 Cloudy with Haze 61 16.1 56 13.3 84 84 E 6 9 30.11 1020 5 8.0467 0 0
3:53 am 03:53 Cloudy with Haze 61 16.1 56 13.3 84 84 E 3 6 30.11 1020 5 8.0467 0 0
4:53 am 04:53 Cloudy with Haze 61 16.1 55 12.8 81 81 SE 7 11 30.09 1019 5 8.0467 0 0
5:53 am 05:53 Cloudy with Haze 61 16.1 56 13.3 84 84 ESE 7 11 30.09 1019 5 8.0467 0 0
6:53 am 06:53 Cloudy with Haze 62 16.7 55 12.8 78 78 SE 9 15 30.09 1019 4 6.43736 0 0
7:53 am 07:53 Cloudy with Haze 63 17.2 55 12.8 76 76 ESE 12 19 30.09 1019 4 6.43736 0 0
8:53 am 08:53 Cloudy with Haze 66 18.9 55 12.8 68 68 SE 10 17 30.1 1019 5 8.0467 0 0
9:53 am 09:53 Cloudy with Haze 64 17.8 53 11.7 68 68 SE 9 15 30.09 1019 5 8.0467 0 0
10:53 am 10:53 Cloudy with Haze 65 18.3 54 12.2 68 68 SE 12 19 30.08 1019 5 8.0467 0 0
11:53 am 11:53 Cloudy with Haze 65 18.3 53 11.7 66 66 ESE 12 19 30.07 1018 5 8.0467 0 0
12:53 pm 12:53 Cloudy with Haze 68 20 55 12.8 63 63 SSE 10 17 30.04 1017 5 8.0467 0 0.0254
1:53 pm 13:53 Cloudy with Haze 70 21.1 53 11.7 55 55 S 18 30 30.01 1016 6 9.65604 0 0.0254
2:53 pm 14:53 Mostly Cloudy 71 21.7 53 11.7 53 53 SSE 15 24 30 1016 7 11.26538 0 0
3:53 pm 15:53 Cloudy 70 21.1 52 11.1 53 53 SE 14 22 30 1016 7 11.26538 0 0
4:53 pm 16:53 Mostly Cloudy 71 21.7 52 11.1 51 51 SE 15 24 29.98 1015 7 11.26538 0 0
5:53 pm 17:53 Cloudy 71 21.7 51 10.6 49 49 SE 18 30 29.96 1015 8 12.87472 0 0
6:53 pm 18:53 Cloudy 69 20.6 51 10.6 53 53 ESE 17 28 29.95 1014 8 12.87472 0 0
7:53 pm 19:53 Cloudy 66 18.9 51 10.6 59 59 ESE 14 22 29.95 1014 8 12.87472 0 0
8:53 pm 20:53 Cloudy 65 18.3 52 11.1 63 63 ESE 12 19 29.95 1014 9 14.48406 0 0
9:53 pm 21:53 Cloudy 64 17.8 52 11.1 65 65 E 9 15 29.98 1015 8 12.87472 0 0
10:53 pm 22:53 Cloudy 64 17.8 52 11.1 65 65 ESE 8 13 29.97 1015 8 12.87472 0 0
11:53 pm 23:53 Cloudy 63 17.2 51 10.6 65 65 ESE 8 13 29.97 1015 9 14.48406 0 0

Powered by AerisWeather